Vertical_Velocity
-3 -3 -3 -2 -1 -0 -1 -0 -0 -1 -1 -1 -2 -1 -2 -1 1 2 1 -1 -2 1 -1 2 -1 1 1 1 1 -1 -1 -2 -0 -2 -3 -1 -1 -1 1 1 1 1 4 3 1
-2 -1 -1 -1 -1 -0 -0 1 1 -0 0 0 -1 -1 -1 1 -0 -1 -1 -1 -1 -1 -2 -2 -2 -1 0 1 -0 -1 -1 -1 -0 2 3 1 -0 -1 1 3 7 1 -0 -1 2
-2 -2 -2 -1 -1 -1 -1 -0 -0 -0 -1 0 -0 1 -0 0 -1 0 1 -0 -2 -2 -3 -2 -0 -2 -3 -3 -1 1 3 4 -0 -3 -1 1 3 1 2 6 -3 1 -2 -1 -4
-1 -0 -1 -1 -1 -0 -0 0 -1 -1 -1 -1 0 0 -1 1 0 1 -2 1 1 2 -1 2 0 0 -2 -3 -5 -4 -1 -1 1 3 3 0 -2 -5 -2 -1 -1 -4 -2 -0 -0
-3 -2 -2 -1 -1 -2 -1 -0 -1 0 -1 -2 -0 -0 1 -1 1 1 2 -0 0 -0 2 -2 -0 -1 0 -1 2 2 -1 -1 -4 -3 -1 -2 -3 -1 -4 -6 -4 -4 -2 0 0
-1 -2 -1 -1 -2 -2 -2 -1 -1 -2 -2 -1 -0 0 0 -1 0 2 1 1 -2 0 -0 0 3 3 1 1 -3 -5 -4 0 1 0 -3 -1 -3 -5 -4 -2 -2 4 5 5 4
0 -2 -1 -0 0 -0 -1 -0 -0 -0 -0 -1 -1 -1 -0 -2 -2 -2 -2 -1 0 1 0 -2 -2 -0 -2 -3 -5 -1 5 1 -1 -3 -3 -5 4 0 5 3 6 -1 -2 1 2
-1 -2 -2 -3 -4 -2 -0 0 -0 0 -1 -2 -2 -0 -1 -2 1 -1 -2 -2 0 -1 -1 -1 1 1 -0 2 -1 -3 -1 1 -1 -5 -2 -3 4 3 0 -4 -1 1 2 1 1
-0 0 -1 -1 -2 -2 -3 -0 -1 -1 -0 -2 0 1 -0 1 -1 -1 -0 -2 1 0 -2 -1 -3 1 0 2 1 -1 -1 -2 1 -1 0 0 -7 7 2 -2 1 -1 -1 -2 -2
-1 -3 -3 -3 -3 -2 -3 -6 -0 -1 -1 0 -1 3 -2 -3 -1 1 2 0 -3 1 0 -2 -4 -1 1 -1 -1 -1 -2 -2 0 -5 5 -2 -8 12 -2 -2 -3 -4 1 2 -2
1 1 2 1 -3 -2 1 -2 -3 -4 -3 -1 1 -0 2 0 2 2 -1 1 -0 -1 -0 -2 -4 -2 -0 -0 1 1 -0 -3 1 0 -8 -5 -8 -10 -7 1 1 -0 -4 -4 -5
-2 -1 -0 -0 0 -3 -3 -2 -6 -9 -13 -4 -1 0 1 -1 1 2 3 -0 1 0 -1 -2 -3 -1 -1 -1 -2 -2 -1 -0 -1 -3 -3 -3 -9 -7 -3 -1 -2 -1 -4 -5 -6
-0 -1 -1 -3 -1 0 -4 -1 -3 -6 -8 -8 -2 1 1 -2 -1 -2 -0 -0 -2 -1 1 -0 -1 -2 -4 0 -1 1 -2 -2 -0 -2 -4 -3 -9 0 -1 -1 -1 -2 1 -1 -4
-5 -2 -1 -2 -2 2 -3 -1 -2 -4 -10 -6 -4 -0 -0 -2 2 -1 -1 -1 -7 -8 -5 0 -0 -1 -1 1 -0 -3 -1 -1 -1 -1 -3 -4 -9 -11 1 1 -1 0 -1 1 1
-0 -1 -3 -5 0 -2 4 -3 -3 -2 -5 -4 1 -2 -1 1 -1 -2 -1 -1 -4 -1 -0 -4 -3 -2 -3 -4 -2 -4 1 1 -0 -0 2 -0 -0 -2 -2 -1 0 -0 1 -2 -2
4 -2 -2 3 -7 4 1 -2 3 -1 -12 -6 -3 -2 -1 -2 1 -1 -2 3 2 -2 -2 4 2 1 1 0 4 6 1 -1 2 1 -1 1 2 -7 -2 -1 2 1 -3 -4 -2
-2 3 -4 -7 -0 -5 4 1 9 -7 -7 -4 -3 -2 -2 -2 -1 1 -0 -1 2 -3 -5 -1 -4 -1 0 2 -1 -2 -0 -5 -5 -2 -5 -5 2 -22 -5 -4 -4 -7 1 -0 -3
2 5 1 -4 -2 -3 -2 1 8 4 12 5 2 -5 -2 -2 -4 -4 -3 -3 0 -3 4 -3 -3 -4 -3 -3 -2 2 -1 -1 -2 -1 -1 5 -5 -4 10 9 1 -6 -5 -6 -6
-1 -0 1 -2 0 6 5 7 -17 -8 -3 2 3 1 -2 -5 10 -2 -6 -7 -10 -3 -4 -1 -3 -2 0 -2 1 -0 0 0 -2 -1 1 -2 -7 -11 -4 3 4 1 -4 -1 -2
1 6 -1 3 2 -0 7 -3 -7 -15 -11 -6 -1 1 -4 -4 -1 1 -2 -1 -2 -2 3 -3 -1 -3 -0 -0 -3 4 4 -2 -1 -2 -1 -3 -3 -12 -0 -2 -2 1 3 -1 1
6 6 3 2 3 10 -11 -0 -1 -1 -6 1 -5 -2 -2 -2 -2 -3 -3 -1 3 -2 -1 -2 6 1 -0 -6 -5 -2 -2 -0 0 -2 -3 -1 -9 -1 -0 0 -1 3 4 3 -2
14 4 8 11 9 11 4 -6 1 -3 -3 -6 -9 -0 0 6 3 1 -4 -1 -0 -6 -6 6 2 -4 -4 1 3 -1 3 4 4 -4 2 1 -33 -7 1 -1 4 0 1 5 3
8 5 10 13 -3 9 10 9 -0 7 2 18 12 4 2 3 3 2 6 -5 1 -2 -0 -5 3 2 1 3 2 -1 -1 6 2 6 -5 7 -21 -1 3 1 1 -2 3 2 1
2 4 3 8 9 6 12 -2 10 7 6 7 1 5 7 8 5 4 -6 2 -3 -3 2 6 6 -8 -7 6 4 -1 2 3 6 12 -13 -12 -37 9 -6 6 12 3 5 4 -3
8 3 8 3 -8 3 12 1 3 6 9 15 3 3 -3 7 -1 5 16 7 5 2 3 9 -8 0 -2 -2 3 -0 8 12 2 -6 -2 -20 -11 -12 1 5 7 7 -3 -1 1
-4 -1 8 -3 1 10 15 -6 -1 5 1 -1 13 4 4 16 7 -3 7 7 6 -3 -3 -8 -7 -2 -6 1 -2 -10 18 -9 -2 -3 -6 -9 -32 19 3 8 1 0 1 4 -0
-5 -4 16 0 10 11 -9 -5 -6 8 -5 -10 -2 -3 -7 -5 6 12 -13 -3 -1 4 9 -4 11 10 -11 -1 6 -1 -8 4 -6 -9 6 4 -24 11 -0 6 -0 -3 -4 -5 -4
Height
3181 3181 3179 3179 3177 3176 3175 3174 3172 3170 3169 3167 3165 3162 3160 3159 3158 3157 3157 3157 3154 3153 3152 3151 3150 3149 3149 3148 3148 3148 3149 3148 3148 3149 3149 3149 3148 3147 3147 3146 3146 3145 3144 3144 3144
3180 3179 3178 3177 3176 3175 3174 3173 3171 3170 3168 3166 3164 3162 3160 3158 3157 3156 3155 3154 3153 3152 3151 3151 3150 3149 3149 3148 3148 3148 3147 3147 3147 3147 3147 3147 3146 3145 3145 3144 3144 3144 3143 3142 3142
3179 3178 3177 3176 3175 3173 3172 3171 3170 3168 3167 3165 3163 3161 3159 3157 3156 3155 3154 3153 3152 3152 3150 3149 3149 3150 3149 3149 3148 3147 3147 3147 3146 3145 3145 3145 3145 3144 3143 3144 3143 3142 3141 3140 3140
3175 3175 3174 3174 3173 3172 3171 3170 3168 3167 3166 3164 3162 3160 3158 3156 3157 3153 3151 3151 3151 3150 3148 3147 3148 3148 3147 3147 3147 3147 3147 3146 3146 3145 3145 3144 3143 3142 3141 3140 3138 3138 3138 3137 3135
3173 3172 3172 3172 3171 3170 3169 3168 3167 3165 3164 3162 3161 3159 3157 3155 3154 3151 3151 3149 3148 3147 3146 3145 3146 3146 3146 3146 3146 3146 3146 3146 3145 3143 3142 3140 3140 3138 3137 3136 3135 3134 3133 3132 3132
3171 3170 3170 3170 3169 3168 3167 3166 3165 3164 3163 3161 3159 3158 3156 3155 3152 3151 3150 3148 3147 3146 3145 3144 3145 3145 3145 3145 3146 3146 3145 3144 3142 3141 3140 3139 3137 3135 3135 3133 3133 3132 3131 3131 3131
3170 3169 3169 3168 3167 3166 3165 3164 3163 3161 3160 3159 3158 3156 3154 3154 3151 3150 3149 3147 3145 3144 3145 3145 3145 3146 3146 3145 3144 3143 3143 3141 3140 3139 3139 3136 3135 3133 3132 3131 3130 3130 3129 3128 3128
3168 3167 3167 3166 3165 3164 3164 3162 3161 3159 3158 3156 3155 3154 3152 3150 3149 3149 3147 3145 3144 3143 3144 3145 3145 3145 3144 3144 3142 3141 3141 3140 3139 3137 3137 3136 3132 3131 3130 3129 3127 3126 3126 3125 3124
3166 3166 3166 3164 3163 3162 3161 3160 3158 3157 3155 3154 3153 3151 3150 3149 3148 3146 3145 3144 3144 3145 3145 3146 3145 3144 3144 3142 3141 3140 3139 3137 3136 3135 3134 3134 3130 3130 3127 3124 3123 3121 3120 3120 3120
3162 3163 3164 3163 3162 3161 3159 3157 3156 3155 3153 3151 3150 3151 3148 3147 3144 3144 3143 3143 3144 3145 3146 3146 3145 3144 3143 3142 3141 3139 3137 3135 3134 3133 3131 3129 3128 3127 3122 3118 3117 3116 3116 3115 3115
3158 3158 3158 3159 3159 3159 3159 3156 3157 3156 3152 3150 3148 3146 3144 3143 3142 3142 3143 3143 3144 3145 3144 3144 3144 3143 3142 3141 3139 3136 3135 3132 3130 3126 3126 3124 3123 3121 3117 3115 3113 3111 3111 3110 3109
3152 3153 3154 3154 3154 3155 3154 3153 3152 3152 3149 3147 3144 3142 3141 3140 3140 3141 3142 3143 3143 3143 3142 3143 3141 3140 3139 3138 3137 3134 3132 3130 3127 3125 3121 3118 3117 3114 3112 3111 3109 3107 3106 3106 3105
3148 3148 3148 3149 3150 3151 3150 3150 3148 3147 3147 3144 3141 3140 3141 3141 3139 3140 3141 3140 3141 3142 3141 3140 3140 3138 3138 3136 3134 3132 3129 3127 3124 3120 3119 3114 3111 3109 3108 3107 3105 3104 3103 3100 3099
3144 3145 3146 3144 3147 3147 3147 3147 3145 3144 3143 3141 3139 3138 3139 3139 3140 3139 3140 3142 3140 3140 3140 3139 3137 3136 3135 3133 3131 3129 3127 3123 3121 3118 3115 3115 3110 3108 3105 3105 3105 3104 3101 3100 3097
3139 3140 3141 3141 3142 3143 3145 3144 3144 3143 3142 3139 3135 3136 3136 3138 3138 3137 3138 3137 3137 3137 3138 3136 3134 3132 3131 3130 3127 3124 3122 3119 3117 3115 3111 3108 3109 3101 3103 3104 3103 3101 3100 3098 3096
3132 3133 3134 3137 3137 3138 3139 3140 3141 3145 3137 3134 3133 3132 3133 3134 3134 3134 3135 3135 3133 3132 3131 3131 3130 3129 3127 3125 3124 3122 3119 3116 3112 3111 3111 3108 3108 3102 3100 3100 3100 3098 3095 3094 3094
3124 3125 3126 3129 3133 3134 3135 3137 3139 3136 3134 3129 3129 3129 3129 3130 3130 3130 3130 3130 3131 3128 3126 3127 3126 3124 3124 3122 3121 3120 3120 3117 3114 3111 3107 3105 3104 3092 3090 3090 3092 3094 3094 3092 3091
3116 3117 3117 3120 3125 3128 3131 3134 3129 3125 3122 3120 3121 3123 3125 3125 3125 3125 3124 3125 3125 3123 3120 3118 3117 3117 3118 3120 3120 3119 3120 3122 3122 3114 3104 3103 3091 3086 3087 3084 3083 3084 3089 3089 3088
3106 3107 3107 3110 3116 3119 3124 3117 3114 3121 3123 3122 3118 3119 3119 3122 3122 3119 3117 3118 3118 3120 3123 3119 3114 3114 3115 3115 3117 3114 3114 3114 3114 3111 3108 3097 3091 3090 3088 3087 3083 3081 3081 3083 3083
3096 3096 3097 3101 3105 3110 3110 3099 3100 3106 3113 3115 3116 3115 3112 3115 3117 3115 3113 3110 3112 3114 3114 3113 3112 3111 3112 3113 3114 3113 3112 3113 3115 3112 3105 3090 3088 3084 3082 3082 3082 3082 3079 3078 3076
3084 3084 3085 3091 3096 3097 3089 3086 3087 3092 3100 3106 3104 3107 3106 3107 3108 3108 3107 3107 3106 3108 3108 3112 3110 3104 3104 3104 3105 3107 3105 3106 3107 3105 3101 3095 3079 3081 3080 3080 3080 3080 3078 3074 3072
3071 3073 3075 3080 3083 3077 3075 3076 3077 3080 3086 3091 3093 3094 3096 3098 3095 3099 3094 3097 3098 3101 3104 3105 3102 3096 3095 3096 3096 3098 3096 3098 3100 3097 3092 3090 3070 3078 3077 3077 3076 3076 3076 3072 3068
3056 3054 3058 3065 3064 3065 3066 3067 3071 3071 3074 3075 3078 3078 3083 3087 3090 3085 3085 3087 3089 3092 3092 3093 3091 3090 3086 3090 3087 3085 3085 3087 3087 3088 3086 3085 3070 3072 3074 3073 3071 3072 3071 3067 3064
3047 3048 3048 3049 3051 3055 3056 3059 3061 3061 3065 3065 3068 3071 3074 3074 3076 3074 3075 3078 3080 3083 3085 3084 3081 3080 3080 3082 3082 3081 3081 3079 3080 3077 3076 3067 3064 3069 3071 3069 3066 3064 3063 3059 3055
3039 3040 3039 3041 3042 3047 3050 3050 3053 3054 3055 3057 3057 3061 3067 3067 3068 3067 3068 3069 3070 3072 3075 3077 3072 3074 3072 3072 3073 3071 3071 3072 3070 3071 3068 3057 3057 3056 3058 3059 3057 3052 3050 3049 3048
3034 3035 3035 3035 3036 3041 3041 3040 3045 3050 3050 3051 3052 3054 3058 3059 3061 3064 3063 3063 3064 3065 3067 3068 3067 3066 3061 3063 3062 3058 3056 3058 3065 3062 3057 3051 3043 3052 3051 3050 3047 3047 3045 3043 3041
3025 3028 3029 3029 3029 3032 3033 3036 3038 3043 3041 3043 3047 3048 3047 3050 3054 3051 3054 3057 3058 3059 3058 3061 3059 3059 3054 3057 3054 3047 3045 3048 3045 3048 3045 3042 3038 3040 3041 3042 3041 3039 3039 3038 3036